TimeHST,TemperatureF,Dew PointF,Humidity,Sea Level PressureIn,VisibilityMPH,Wind Direction,Wind SpeedMPH,Gust SpeedMPH,PrecipitationIn,Events,Conditions,WindDirDegrees,DateUTC
12:04 AM,73.4,68.0,83,30.06,6.2,ENE,11.5,-,N/A,,Mostly Cloudy,70,2013-06-15 10:04:00
12:12 AM,73.4,68.0,83,30.06,6.2,East,6.9,-,N/A,,Scattered Clouds,80,2013-06-15 10:12:00
12:48 AM,73.4,68.0,83,30.05,6.2,ENE,9.2,-,N/A,,Mostly Cloudy,70,2013-06-15 10:48:00
12:57 AM,73.4,68.0,83,30.04,10.0,ENE,8.1,-,N/A,,Scattered Clouds,70,2013-06-15 10:57:00
1:57 AM,73.4,66.9,80,30.02,10.0,East,8.1,-,N/A,,Mostly Cloudy,80,2013-06-15 11:57:00
2:19 AM,73.4,66.2,78,30.03,6.2,Variable,5.8,-,N/A,,Scattered Clouds,0,2013-06-15 12:19:00
2:57 AM,73.4,66.9,80,30.01,10.0,East,5.8,-,N/A,,Mostly Cloudy,80,2013-06-15 12:57:00
3:57 AM,73.4,68.0,83,30.01,10.0,ENE,9.2,17.3,0.00,,Mostly Cloudy,70,2013-06-15 13:57:00
4:13 AM,-9999,-9999,N/A,30.02,6.2,ENE,5.8,-,N/A,,Scattered Clouds,70,2013-06-15 14:13:00
4:57 AM,73.4,66.0,78,30.01,10.0,East,4.6,-,N/A,,Mostly Cloudy,90,2013-06-15 14:57:00
5:57 AM,75.2,66.0,73,30.02,10.0,East,10.4,19.6,N/A,,Scattered Clouds,80,2013-06-15 15:57:00
6:57 AM,75.2,68.0,78,30.03,10.0,ENE,9.2,-,N/A,,Scattered Clouds,70,2013-06-15 16:57:00
7:41 AM,75.2,66.2,73,30.05,6.2,ENE,10.4,17.3,N/A,,Mostly Cloudy,70,2013-06-15 17:41:00
7:54 AM,75.2,66.2,73,30.05,6.2,East,6.9,17.3,N/A,,Mostly Cloudy,90,2013-06-15 17:54:00
7:57 AM,75.2,66.9,75,30.04,10.0,East,10.4,17.3,N/A,,Mostly Cloudy,90,2013-06-15 17:57:00
8:05 AM,75.2,66.2,73,30.05,6.2,East,10.4,19.6,N/A,,Mostly Cloudy,80,2013-06-15 18:05:00
8:17 AM,75.2,66.2,73,30.06,6.2,Variable,4.6,-,N/A,,Mostly Cloudy,0,2013-06-15 18:17:00
8:57 AM,75.2,66.0,73,30.04,10.0,East,8.1,-,N/A,,Scattered Clouds,80,2013-06-15 18:57:00
9:22 AM,-9999,-9999,N/A,30.05,6.2,ENE,10.4,17.3,N/A,,Mostly Cloudy,70,2013-06-15 19:22:00
9:32 AM,77.0,66.2,69,30.05,6.2,ENE,11.5,18.4,N/A,,Mostly Cloudy,60,2013-06-15 19:32:00
9:57 AM,77.0,66.9,71,30.04,10.0,East,9.2,19.6,N/A,,Mostly Cloudy,90,2013-06-15 19:57:00
10:57 AM,80.6,66.0,61,30.03,10.0,ENE,12.7,19.6,N/A,,Partly Cloudy,70,2013-06-15 20:57:00
11:57 AM,80.6,66.9,63,30.02,10.0,ENE,10.4,20.7,N/A,,Mostly Cloudy,60,2013-06-15 21:57:00
12:27 PM,82.4,66.2,58,30.02,6.2,ENE,10.4,-,N/A,,Scattered Clouds,60,2013-06-15 22:27:00
12:57 PM,82.4,66.9,59,30.00,10.0,ENE,12.7,19.6,N/A,,Scattered Clouds,60,2013-06-15 22:57:00
1:57 PM,84.2,66.9,56,29.99,10.0,ENE,11.5,20.7,N/A,,Scattered Clouds,70,2013-06-15 23:57:00
2:57 PM,84.2,66.9,56,29.97,10.0,ENE,12.7,20.7,N/A,,Partly Cloudy,70,2013-06-16 00:57:00
3:57 PM,84.2,66.9,56,29.96,10.0,ENE,9.2,18.4,N/A,,Clear,60,2013-06-16 01:57:00
4:57 PM,82.4,66.9,59,29.96,10.0,ENE,11.5,18.4,N/A,,Partly Cloudy,60,2013-06-16 02:57:00
5:57 PM,82.4,66.9,59,29.96,10.0,ENE,9.2,17.3,N/A,,Mostly Cloudy,70,2013-06-16 03:57:00
6:57 PM,78.8,68.0,69,29.97,10.0,East,10.4,-,N/A,,Scattered Clouds,80,2013-06-16 04:57:00
7:57 PM,77.0,66.9,71,29.99,10.0,East,8.1,18.4,N/A,,Scattered Clouds,80,2013-06-16 05:57:00
8:57 PM,77.0,66.9,71,29.99,10.0,Variable,4.6,-,N/A,,Scattered Clouds,0,2013-06-16 06:57:00
9:25 PM,-9999,-9999,N/A,30.02,6.2,ENE,8.1,17.3,N/A,,Mostly Cloudy,70,2013-06-16 07:25:00
9:34 PM,75.2,68.0,78,30.02,6.2,ENE,8.1,17.3,N/A,,Scattered Clouds,70,2013-06-16 07:34:00
9:57 PM,75.2,68.0,78,30.01,10.0,East,8.1,-,N/A,,Scattered Clouds,80,2013-06-16 07:57:00
10:57 PM,75.2,68.0,78,30.01,10.0,ENE,9.2,17.3,N/A,,Scattered Clouds,70,2013-06-16 08:57:00
11:04 PM,-9999,-9999,N/A,30.02,6.2,ENE,10.4,17.3,N/A,,Overcast,70,2013-06-16 09:04:00
11:32 PM,75.2,66.2,73,30.02,6.2,East,8.1,17.3,N/A,,Overcast,80,2013-06-16 09:32:00
11:57 PM,75.2,66.0,73,30.00,10.0,East,8.1,-,N/A,,Mostly Cloudy,80,2013-06-16 09:57:00